Weather observations for the past three days for
Grand Marais, The Bay of Grand Marais
| Date | Time (cdt) | Wind (mph) | Vis. (mi.) | Weather | Sky Cond. | Temperature (ºF) | Relative Humidity | Wind Chill (°F) | Heat Index (°F) | Pressure | Precipitation (in) | ||||||
|---|---|---|---|---|---|---|---|---|---|---|---|---|---|---|---|---|---|
| Air | Dwpt | 6 hour | altimeter (in) | sea level (mb) | 1 hr | 3 hr | 6 hr | ||||||||||
| Max. | Min. | ||||||||||||||||
| 05 | 07:56 | W 9 | 0.00 | NULL | NULL | 34 | 21 | 59% | 27 | 29.66 | 1005.1 | ||||||
| 05 | 06:56 | Vrbl 5 | 0.00 | NULL | NULL | 35.1 | 24.1 | 36 | 34 | 64% | 32 | 29.64 | 1004.3 | ||||
| 05 | 05:56 | NW 3 | 0.00 | NULL | NULL | 36 | 25 | 64% | 29.62 | 1003.5 | |||||||
| 05 | 04:56 | Calm | 0.00 | NULL | NULL | 36 | 26.1 | 67% | 29.59 | 1002.6 | |||||||
| 05 | 03:56 | W 6 | 0.00 | NULL | NULL | 35.1 | 28 | 76% | 31 | 29.59 | 1002.6 | ||||||
| 05 | 02:56 | W 6 | 0.00 | NULL | NULL | 35.1 | 28 | 76% | 31 | 29.58 | 1002.0 | ||||||
| 05 | 01:56 | W 5 | 0.00 | NULL | NULL | 35.1 | 30 | 82% | 32 | 29.57 | 1001.9 | ||||||
| 05 | 00:56 | W 5 | 0.00 | NULL | NULL | 36 | 28.9 | 48 | 36 | 76% | 33 | 29.57 | 1001.8 | ||||
| 04 | 23:56 | W 12 | 0.00 | NULL | NULL | 37 | 28.9 | 73% | 30 | 29.56 | 1001.3 | ||||||
| 04 | 22:56 | Calm | 0.00 | NULL | NULL | 39 | 26.1 | 60% | 29.54 | 1000.7 | |||||||
| 04 | 20:56 | Vrbl 6 G 22 | 0.00 | NULL | NULL | 41 | 30 | 65% | 38 | 29.5 | 999.4 | ||||||
| 04 | 19:56 | N 9 | 0.00 | NULL | NULL | 45 | 28.9 | 54% | 41 | 29.48 | 998.7 | ||||||
| 04 | 18:56 | W 15 G 28 | 0.00 | NULL | NULL | 48 | 25 | 54 | 48 | 41% | 43 | 29.43 | 996.8 | ||||
| 04 | 17:56 | NW 9 G 40 | 0.00 | NULL | NULL | 50 | 26.1 | 39% | 47 | 29.42 | 996.6 | ||||||
| 04 | 16:56 | NW 15 G 28 | 0.00 | NULL | NULL | 51.1 | 27 | 39% | 29.4 | 995.8 | |||||||
| 04 | 15:56 | W 12 G 26 | 0.00 | NULL | NULL | 50 | 33.1 | 52% | 46 | 29.37 | 994.9 | ||||||
| 04 | 14:56 | Vrbl 6 G 31 | 0.00 | NULL | NULL | 54 | 33.1 | 45% | 29.34 | 993.8 | |||||||
| 04 | 13:56 | NW 8 G 23 | 0.00 | NULL | NULL | 54 | 33.1 | 45% | 29.33 | 993.4 | |||||||
| 04 | 12:56 | NW 13 G 31 | 0.00 | NULL | NULL | 53.1 | 33.1 | 54 | 41 | 47% | 29.3 | 992.3 | 0.03 | ||||
| 04 | 11:56 | NW 14 G 37 | 0.00 | NULL | NULL | 51.1 | 35.1 | 54% | 29.27 | 991.5 | |||||||
| 04 | 10:56 | Vrbl 7 G 28 | 0.00 | NULL | NULL | 48.9 | 42.1 | 77% | 46 | 29.24 | 990.6 | 0.02 | |||||
| 04 | 09:56 | NW 10 G 32 | 0.00 | NULL | NULL | 48 | 43 | 83% | 44 | 29.23 | 990.0 | 0.01 | 0.01 | ||||
| 04 | 08:56 | W 9 G 18 | 0.00 | NULL | NULL | 50 | 39.9 | 68% | 47 | 29.2 | 989.2 | ||||||
| 04 | 07:56 | W 14 G 24 | 0.00 | NULL | NULL | 42.1 | 37 | 82% | 35 | 29.2 | 989.1 | ||||||
| 04 | 06:56 | NW 15 G 37 | 0.00 | NULL | NULL | 51.1 | 39 | 54 | 39 | 64% | 29.16 | 987.3 | |||||
| 04 | 05:56 | NW 7 | 0.00 | NULL | NULL | 39.9 | 33.1 | 77% | 36 | 29.16 | 987.5 | ||||||
| 04 | 04:56 | W 5 | 0.00 | NULL | NULL | 43 | 32 | 65% | 41 | 29.18 | 988.1 | ||||||
| 04 | 03:56 | Calm | 0.00 | NULL | NULL | 43 | 33.1 | 68% | 29.22 | 989.4 | |||||||
| 04 | 02:56 | Calm | 0.00 | NULL | NULL | 42.1 | 30.9 | 65% | 29.27 | 991.1 | |||||||
| 04 | 01:56 | Calm | 0.00 | NULL | NULL | 42.1 | 32 | 68% | 29.32 | 992.9 | |||||||
| 04 | 00:56 | Calm | 0.00 | NULL | NULL | 42.1 | 32 | 61 | 39 | 68% | 29.37 | 994.6 | |||||
| 03 | 23:56 | Calm | 0.00 | NULL | NULL | 42.1 | 32 | 68% | 29.41 | 996.1 | |||||||
| 03 | 22:56 | Calm | 0.00 | NULL | NULL | 39 | 32 | 76% | 29.45 | 997.8 | |||||||
| 03 | 21:56 | Calm | 0.00 | NULL | NULL | 42.1 | 30 | 62% | 29.48 | 999.1 | |||||||
| 03 | 20:56 | W 6 | 0.00 | NULL | NULL | 42.1 | 30.9 | 65% | 39 | 29.52 | 1000.2 | ||||||
| 03 | 19:56 | W 7 G 18 | 0.00 | NULL | NULL | 46.9 | 28 | 48% | 44 | 29.54 | 1000.7 | ||||||
| 03 | 18:56 | Vrbl 5 | 0.00 | NULL | NULL | 62.1 | 24.1 | 66.9 | 59 | 23% | 29.53 | 1000.4 | |||||
| 03 | 17:56 | NW 9 G 28 | 0.00 | NULL | NULL | 63 | 21 | 20% | 29.55 | 1000.9 | |||||||
| 03 | 16:56 | N 9 G 23 | 0.00 | NULL | NULL | 64.9 | 19.9 | 18% | 29.55 | 1000.7 | |||||||
| 03 | 15:56 | NW 12 G 23 | 0.00 | NULL | NULL | 64 | 19.9 | 18% | 29.55 | 1000.7 | |||||||
| 03 | 14:56 | Vrbl 7 G 29 | 0.00 | NULL | NULL | 64.9 | 12.9 | 13% | 29.56 | 1001.1 | |||||||
| 03 | 13:56 | NW 8 G 21 | 0.00 | NULL | NULL | 64 | 19.9 | 18% | 29.57 | 1001.3 | |||||||
| 03 | 12:56 | Calm | 0.00 | NULL | NULL | 64.9 | 18 | 64.9 | 34 | 16% | 29.58 | 1001.7 | |||||
| 03 | 11:56 | W 9 G 18 | 0.00 | NULL | NULL | 64 | 32 | 30% | 29.58 | 1001.8 | |||||||
| 03 | 10:56 | W 13 | 0.00 | NULL | NULL | 41 | 32 | 70% | 34 | 29.59 | 1002.8 | ||||||
| 03 | 09:56 | W 9 | 0.00 | NULL | NULL | 39.9 | 28 | 63% | 34 | 29.6 | 1003.2 | ||||||
| 03 | 08:56 | W 8 | 0.00 | NULL | NULL | 39.9 | 28 | 63% | 35 | 29.63 | 1004.0 | ||||||
| 03 | 07:56 | Calm | 0.00 | NULL | NULL | 37 | 28.9 | 73% | 29.63 | 1004.2 | |||||||
| 03 | 06:56 | Calm | 0.00 | NULL | NULL | 36 | 28.9 | 41 | 33.1 | 76% | 29.64 | 1004.4 | |||||
| 03 | 05:56 | Calm | 0.00 | NULL | NULL | 33.1 | 26.1 | 75% | 29.65 | 1004.9 | |||||||
| 03 | 04:56 | Calm | 0.00 | NULL | NULL | 34 | 28.9 | 82% | 29.67 | 1005.6 | |||||||
| 03 | 03:56 | Calm | 0.00 | NULL | NULL | 36 | 30 | 79% | 29.69 | 1006.1 | |||||||
| 03 | 02:56 | Calm | 0.00 | NULL | NULL | 37 | 30 | 76% | 29.69 | 1006.3 | |||||||
| 03 | 01:56 | Calm | 0.00 | NULL | NULL | 39.9 | 33.1 | 77% | 29.71 | 1006.7 | |||||||
| 03 | 00:56 | Calm | 0.00 | NULL | NULL | 39.9 | 32 | 43 | 37 | 73% | 29.73 | 1007.4 | |||||
| 02 | 23:56 | E 3 | 0.00 | NULL | NULL | 41 | 32 | 70% | 29.73 | 1007.5 | |||||||
| 02 | 22:56 | Calm | 0.00 | NULL | NULL | 39 | 32 | 76% | 29.76 | 1008.6 | |||||||
| 02 | 21:56 | NE 3 | 0.00 | NULL | NULL | 37.9 | 30.9 | 76% | 29.78 | 1009.2 | |||||||
| 02 | 20:56 | E 3 | 0.00 | NULL | NULL | 37.9 | 30.9 | 76% | 29.79 | 1009.7 | |||||||
| 02 | 19:56 | Calm | 0.00 | NULL | NULL | 37.9 | 30 | 73% | 29.8 | 1010.2 | |||||||
| 02 | 18:56 | Calm | 0.00 | NULL | NULL | 41 | 27 | 43 | 35.1 | 57% | 29.82 | 1010.8 | |||||
| 02 | 17:56 | Calm | 0.00 | NULL | NULL | 42.1 | 26.1 | 53% | 29.84 | 1011.4 | |||||||
| 02 | 16:56 | Calm | 0.00 | NULL | NULL | 37.9 | 28.9 | 70% | 29.86 | 1012.3 | |||||||
| 02 | 15:56 | Calm | 0.00 | NULL | NULL | 36 | 32 | 86% | 29.88 | 1013.0 | |||||||
| 02 | 14:56 | SW 5 | 0.00 | NULL | NULL | 37 | 30.9 | 79% | 34 | 29.91 | 1014.0 | ||||||
| 02 | 13:56 | SW 5 | 0.00 | NULL | NULL | 37 | 32 | 82% | 34 | 29.94 | 1014.8 | ||||||
| 02 | 12:56 | W 6 | 0.00 | NULL | NULL | 36 | 30.9 | 37 | 30 | 82% | 32 | 29.95 | 1015.4 | ||||
| 02 | 11:56 | W 6 | 0.00 | NULL | NULL | 36 | 30.9 | 82% | 32 | 29.98 | 1016.3 | ||||||
| 02 | 10:56 | W 6 | 0.00 | NULL | NULL | 34 | 28.9 | 82% | 29 | 30 | 1016.9 | ||||||
| 02 | 09:56 | W 3 | 0.00 | NULL | NULL | 34 | 28 | 79% | 30.02 | 1017.6 | |||||||
| 02 | 08:56 | Calm | 0.00 | NULL | NULL | 33.1 | 25 | 72% | 30.02 | 1017.7 | |||||||
| Date | Time (cdt) | Wind (mph) | Vis. (mi.) | Weather | Sky Cond. | Air | Dwpt | Max. | Min. | Relative Humidity | Wind Chill (°F) | Heat Index (°F) | altimeter (in) | sea level (mb) | 1 hr | 3 hr | 6 hr |
| 6 hour | |||||||||||||||||
| Temperature (ºF) | Pressure | Precipitation (in) | |||||||||||||||